Content
SEND FEEDBACK

Daily
Averages
Monthly
Summary
Mauritania

NOUADHIBOU, MAURITANIA


Home > Africa > Mauritania
Elevation: 10 feet     Latitude: 20 56N     Longitude: 017 02W

WEATHER
 
SELECT A DAY
Number of Records: 122,792;   Date Range: 7/1/96 - 12/19/14
 
SHARE

PRINT THIS DATA

[ ← Previous Day ]
WEATHER ALMANAC - JANUARY 24, 2013
[ Next Day → ]
[ °C ]   °F
Weather ElementAverageHighLow
Temperature63.9 °F78.8 °F (4:00 pm)55.4 °F (8:00 am)
Dewpoint51.6 °F59 °F (7:00 pm)39.2 °F (7:26 am)
Humidity65.1 %82 % (9:00 am)23 % (3:00 pm)
Barometer30.09 in30.17 in (12:00 pm)30.04 in (4:00 pm)
Wind Speed21.3 mph27.6 mph (10:00 am)
Weather ElementAverage
Visibility3 mi
Wind DirectionSSW (211.3 °)

Weather ElementTotal
Precipitation---
Cooling Degree Days2.1 (Base 65)
Growing Degree Days17.1 (Base 50)
Averaged from 32 records on January 24, 2013
WEATHER CONDITIONS BREAKOUT
WIND DIRECTION BREAKOUT
WEATHER BY HOUR - JANUARY 24, 2013
[ °C ]   °F
Local TimeTemperatureDewpointHumidityBarometerVisibilityWind DirectionWind SpeedGust SpeedPrecipitationEventsConditions
12:00 AM60.8 °F53.6 °F77 %30.09 in1.9 miNorth (360°)18.4 mph
1:00 AM60.8 °F53.6 °F77 %30.09 in1.9 miNorth (10°)19.6 mphLow Drifting Sand
2:00 AM60.8 °F53.6 °F77 %30.09 in1.9 miNorth (10°)19.6 mphLow Drifting Sand
3:00 AM60.0 °F54.0 °F74 %30.12 in2.0 miNorth21.9 mphWidespread Dust
3:00 AM60.8 °F51.8 °F72 %30.09 in1.9 miNorth (10°)23.0 mphLow Drifting Sand
4:00 AM59.0 °F50.0 °F72 %30.06 in1.9 miNorth (10°)26.5 mphLow Drifting Sand
5:00 AM59.0 °F50.0 °F72 %30.06 in1.9 miNorth (350°)25.3 mphLow Drifting Sand
6:00 AM57.2 °F48.2 °F72 %30.09 in1.9 miNorth (360°)24.2 mphLow Drifting Sand
6:00 AM57.0 °F51.0 °F74 %30.11 in2.0 miNorth24.2 mphBlowing Sand
7:00 AM57.2 °F48.2 °F72 %30.09 in1.9 miNorth (360°)26.5 mphLow Drifting Sand
7:26 AM66.2 °F39.2 °F37 %30.09 in3.7 miNorth (360°)21.9 mphLow Drifting Sand
8:00 AM55.4 °F48.2 °F77 %30.12 in3.7 miNorth (360°)23.0 mph
9:00 AM56.0 °F51.0 °F77 %30.15 in4.0 miNorth24.2 mph
9:00 AM57.2 °F51.8 °F82 %30.12 in4.3 miNorth (360°)24.2 mph
10:00 AM59.0 °F51.8 °F77 %30.15 in4.3 miNorth (360°)27.6 mphLow Drifting Sand
11:00 AM62.6 °F51.8 °F68 %30.15 in4.3 miNorth (10°)24.2 mphLow Drifting Sand
12:00 PM66.2 °F51.8 °F60 %30.15 in4.3 miNorth (10°)20.7 mphLow Drifting Sand
12:00 PM65.0 °F51.0 °F51 %30.17 in4.0 miNorth20.7 mph
1:00 PM69.8 °F50.0 °F49 %30.12 in4.3 miNorth (10°)20.7 mphLow Drifting Sand
2:00 PM71.6 °F48.2 °F43 %30.09 in4.3 miNorth (10°)18.4 mphLow Drifting Sand
3:00 PM76.0 °F45.0 °F23 %30.06 in4.0 miNorth18.4 mph
3:00 PM77.0 °F44.6 °F32 %30.06 in4.3 miNorth (360°)18.4 mphLow Drifting Sand
4:00 PM78.8 °F42.8 °F28 %30.04 in4.3 miNorth (360°)16.1 mphLow Drifting Sand
5:00 PM69.8 °F57.2 °F64 %30.04 in2.5 miNW (320°)20.7 mphLow Drifting Sand
6:00 PM68.0 °F55.4 °F64 %30.04 in2.5 miNNW (340°)20.7 mphLow Drifting Sand
6:00 PM68.0 °F58.0 °F61 %30.04 in2.0 miNNW (330°)20.7 mphBlowing Sand
7:00 PM66.2 °F59.0 °F78 %30.04 in2.5 miNNW (340°)18.4 mphLow Drifting Sand
8:00 PM64.4 °F55.4 °F73 %30.04 in2.5 miNorth (360°)19.6 mphLow Drifting Sand
9:00 PM64.0 °F56.0 °F68 %30.09 in2.0 miNorth (350°)18.4 mphWidespread Dust
9:00 PM64.4 °F55.4 °F73 %30.09 in2.5 miNorth (350°)18.4 mphWidespread Dust
10:00 PM62.6 °F55.4 °F77 %30.09 in2.5 miNorth (350°)18.4 mphWidespread Dust
11:00 PM62.6 °F57.2 °F82 %30.12 in2.5 miNorth (350°)18.4 mphWidespread Dust
Hourly data recorded from GQPP, located miles away from Nouadhibou, Mauritania







STORIES FROM OUR PARTNERS